This is the latest recevied weather packets stored in our database for station/object HS3PIK-2. If no packets are shown the sender has not sent any weather packets the latest 10 day(s).
| Time | Temp. | Humidity | Pressure | Rain* | Wind** | Luminosity | Snow |
|---|---|---|---|---|---|---|---|
| 1777692754 | 33.33° C | 66% | - | - | - | 0 W/m² | - |
| 1777692426 | 32.78° C | 67% | - | - | - | 0 W/m² | - |
| 1777692097 | 32.78° C | 69% | - | - | - | 0 W/m² | - |
| 1777691767 | 32.22° C | 68% | - | - | - | 0 W/m² | - |
| 1777691439 | 32.78° C | 69% | - | - | - | 0 W/m² | - |
| 1777691106 | 32.22° C | 70% | - | - | - | 0 W/m² | - |
| 1777690779 | 32.22° C | 69% | - | - | - | 0 W/m² | - |
| 1777690452 | 32.22° C | 69% | - | - | - | 0 W/m² | - |
| 1777690127 | 32.22° C | 71% | - | - | - | 0 W/m² | - |
| 1777689797 | 31.67° C | 69% | - | - | - | 0 W/m² | - |
| 1777689469 | 31.67° C | 70% | - | - | - | 0 W/m² | - |
| 1777689139 | 32.22° C | 70% | - | - | - | 0 W/m² | - |
| 1777688812 | 31.67° C | 70% | - | - | - | 0 W/m² | - |
| 1777688477 | 31.67° C | 70% | - | - | - | 0 W/m² | - |
| 1777688149 | 31.67° C | 70% | - | - | - | 0 W/m² | - |
| 1777687819 | 31.11° C | 69% | - | - | - | 0 W/m² | - |
| 1777687492 | 31.11° C | 69% | - | - | - | 0 W/m² | - |
| 1777687164 | 31.67° C | 68% | - | - | - | 0 W/m² | - |
| 1777686832 | 31.11° C | 69% | - | - | - | 0 W/m² | - |
| 1777686507 | 31.11° C | 69% | - | - | - | 0 W/m² | - |
| 1777686177 | 31.11° C | 70% | - | - | - | 0 W/m² | - |
| 1777685850 | 30.56° C | 71% | - | - | - | 0 W/m² | - |
| 1777685518 | 30.56° C | 73% | - | - | - | 0 W/m² | - |
| 1777685187 | 30.56° C | 74% | - | - | - | 0 W/m² | - |
| 1777684857 | 30.56° C | 77% | - | - | - | 0 W/m² | - |
* Rain since midnight (hover to see other rain measurements)
** Current wind speed in m/s (hover to see current wind gust speed)